Simultaneous Nadir Overpasses (SNOs) Predictions

Prediction of SNOs between GOES-16 and TERRA Satellite Orbit:

Table of predicted SNOs for the next 14.0 days since TLE Epoch: 8/20/2025
Index Date Time (GOES-16) GOES-16 Lat,Lon TERRA Lat,Lon Distance(km) Time Diff (sec)
1 08/21/2025 16:07:58 0.01,-104.73 -0.30,-103.21 172.66 80
2 08/22/2025 04:30:14 -0.02,-104.69 -0.68,-107.98 373.80 80
3 08/24/2025 04:08:18 -0.01,-104.69 0.25,-103.34 153.09 80
4 08/24/2025 16:30:24 0.02,-104.73 0.69,-108.07 379.14 80
5 08/26/2025 16:08:28 0.01,-104.73 -0.26,-103.43 148.25 80
6 08/27/2025 04:30:43 -0.02,-104.69 -0.78,-108.19 397.92 80
7 08/29/2025 04:08:47 -0.02,-104.69 0.19,-103.55 129.53 80
8 08/29/2025 16:30:52 0.03,-104.74 0.75,-108.28 402.75 80
9 08/31/2025 16:08:56 0.03,-104.73 -0.17,-103.63 124.54 80
10 09/01/2025 04:31:11 -0.04,-104.69 -0.79,-108.41 421.62 80
11 09/03/2025 04:09:14 -0.03,-104.69 0.15,-103.76 105.44 80
12 09/03/2025 16:31:19 0.05,-104.73 0.85,-108.48 427.01 80
